SIA11 KLAX-RJAA

Flight info

Callsign SIA11
Flight time N/A
Altitude 30000
Route SUMMR2 MCKEY DCT LIBBO DCT BRINY DCT BOARS DCT AMAKR DCT LINUZ DCT NATTE DCT ZANNG DCT 48N140W 51N150W/N0492F320 53N160W DCT RIZON DCT EYETI DCT 51N170E/N0494F340 DCT ASPIN DCT AKISU DCT AGEDI ADGOR R591 ADNAP Y807 NOGIX Y802 OLDIV Y809 SUPOK
Aircraft B77W/H-SDE1E2E3FGHIJ4J5M1P2RWXYZ/LB1D1

Departure

Time 2026-04-24 04:28
Airport Los Angeles International Airport (KLAX)

Arrival

Time N/A
Airport Narita International Airport (RJAA)
Time Latitude Longitude Altitude Speed Heading
2026-04-24 04:02 33.94546 -118.40978 126 ft 0 kts 263°
2026-04-24 04:15 33.94546 -118.40968 125 ft 3 kts 279°
2026-04-24 04:15 33.94540 -118.40947 125 ft 3 kts 314°
2026-04-24 04:15 33.94524 -118.40934 125 ft 3 kts 350°
2026-04-24 04:15 33.94520 -118.40933 125 ft 0 kts 353°
2026-04-24 04:19 33.94530 -118.40934 125 ft 5 kts 354°
2026-04-24 04:19 33.94582 -118.40934 127 ft 8 kts
2026-04-24 04:20 33.94638 -118.40922 126 ft 8 kts 11°
2026-04-24 04:20 33.94695 -118.40917 127 ft 8 kts
2026-04-24 04:20 33.94750 -118.40901 127 ft 8 kts 18°
2026-04-24 04:20 33.94805 -118.40882 127 ft 8 kts 19°
2026-04-24 04:21 33.94836 -118.40824 128 ft 9 kts 73°
2026-04-24 04:21 33.94847 -118.40755 126 ft 9 kts 79°
2026-04-24 04:21 33.94858 -118.40684 130 ft 9 kts 81°
2026-04-24 04:21 33.94866 -118.40614 127 ft 9 kts 83°
2026-04-24 04:22 33.94872 -118.40544 128 ft 9 kts 84°
2026-04-24 04:22 33.94879 -118.40468 127 ft 11 kts 84°
2026-04-24 04:22 33.94889 -118.40356 126 ft 16 kts 84°
2026-04-24 04:22 33.94905 -118.40199 125 ft 22 kts 83°
2026-04-24 04:23 33.94917 -118.40113 126 ft 6 kts 69°
2026-04-24 04:23 33.94924 -118.40098 128 ft 0 kts 57°
2026-04-24 04:23 33.94927 -118.40093 127 ft 3 kts 53°
2026-04-24 04:24 33.94958 -118.40072 125 ft 8 kts 15°
2026-04-24 04:24 33.95009 -118.40107 126 ft 11 kts 285°
2026-04-24 04:24 33.95015 -118.40156 125 ft 0 kts 269°
2026-04-24 04:26 33.95013 -118.40215 127 ft 18 kts 268°
2026-04-24 04:26 33.95009 -118.40278 129 ft 0 kts 263°
2026-04-24 04:27 33.94990 -118.40462 126 ft 60 kts 263°
2026-04-24 04:27 33.94902 -118.41300 125 ft 141 kts 263°
2026-04-24 04:27 33.94727 -118.42773 200 ft 207 kts 260°
2026-04-24 04:27 33.94487 -118.44656 667 ft 246 kts 259°
2026-04-24 04:28 33.94191 -118.46770 1700 ft 255 kts 264°
2026-04-24 04:28 33.94097 -118.48903 2914 ft 259 kts 270°
2026-04-24 04:28 33.94094 -118.51096 3599 ft 265 kts 270°
2026-04-24 04:28 33.94017 -118.53341 4136 ft 272 kts 266°
2026-04-24 04:29 33.93856 -118.55633 4717 ft 278 kts 265°
2026-04-24 04:29 33.93675 -118.57967 5293 ft 282 kts 265°
2026-04-24 04:29 33.93491 -118.60301 5887 ft 286 kts 265°
2026-04-24 04:29 33.93303 -118.62698 6490 ft 289 kts 265°
2026-04-24 04:30 33.93116 -118.65117 7124 ft 289 kts 264°
2026-04-24 04:30 33.92921 -118.67488 7944 ft 281 kts 264°
2026-04-24 04:30 33.92732 -118.69847 8517 ft 286 kts 265°
2026-04-24 04:30 33.92555 -118.72241 9097 ft 287 kts 265°
2026-04-24 04:31 33.92370 -118.74632 9762 ft 287 kts 265°
2026-04-24 04:31 33.92188 -118.77028 10322 ft 289 kts 265°
2026-04-24 04:31 33.91997 -118.79494 10512 ft 307 kts 265°
2026-04-24 04:31 33.91803 -118.82131 10677 ft 324 kts 265°
2026-04-24 04:32 33.91701 -118.84909 10824 ft 340 kts 271°
2026-04-24 04:32 33.91780 -118.87784 11042 ft 355 kts 273°
2026-04-24 04:32 33.91909 -118.90784 11498 ft 363 kts 272°
2026-04-24 04:32 33.92014 -118.93817 12267 ft 361 kts 272°
2026-04-24 04:33 33.92101 -118.96829 13066 ft 360 kts 272°
2026-04-24 04:33 33.92323 -118.99839 13562 ft 364 kts 281°
2026-04-24 04:33 33.93056 -119.02767 14082 ft 368 kts 290°
2026-04-24 04:33 33.94160 -119.05561 14628 ft 372 kts 299°
2026-04-24 04:34 33.95555 -119.08190 15128 ft 374 kts 301°
2026-04-24 04:34 33.96979 -119.10846 15580 ft 380 kts 300°
2026-04-24 04:34 33.98363 -119.13502 16279 ft 379 kts 299°
2026-04-24 04:34 33.99765 -119.16179 16928 ft 378 kts 302°
2026-04-24 04:35 34.01466 -119.18668 17213 ft 392 kts 311°
2026-04-24 04:35 34.03520 -119.20879 17726 ft 397 kts 319°
2026-04-24 04:35 34.05776 -119.22789 18246 ft 398 kts 321°
2026-04-24 04:35 34.08071 -119.24709 18523 ft 405 kts 321°
2026-04-24 04:36 34.10389 -119.26682 18905 ft 410 kts 321°
2026-04-24 04:36 34.12702 -119.28669 19502 ft 407 kts 321°
2026-04-24 04:36 34.15004 -119.30651 20084 ft 408 kts 320°
2026-04-24 04:36 34.17290 -119.32630 20511 ft 412 kts 320°
2026-04-24 04:37 34.19627 -119.34655 20934 ft 416 kts 320°
2026-04-24 04:37 34.21989 -119.36699 21400 ft 419 kts 321°
2026-04-24 04:37 34.24369 -119.38756 21858 ft 422 kts 321°
2026-04-24 04:37 34.26761 -119.40823 22327 ft 424 kts 321°
2026-04-24 04:38 34.29171 -119.42906 22771 ft 427 kts 321°
2026-04-24 04:38 34.31594 -119.45003 23206 ft 430 kts 321°
2026-04-24 04:38 34.34036 -119.47116 23616 ft 433 kts 321°
2026-04-24 04:38 34.36491 -119.49243 23980 ft 435 kts 321°
2026-04-24 04:39 34.38919 -119.51361 24370 ft 436 kts 319°
2026-04-24 04:39 34.41246 -119.53706 24788 ft 435 kts 314°
2026-04-24 04:39 34.43368 -119.56315 25124 ft 435 kts 308°
2026-04-24 04:39 34.45328 -119.59113 25468 ft 437 kts 307°
2026-04-24 04:40 34.47287 -119.61939 25817 ft 439 kts 307°
2026-04-24 04:40 34.49257 -119.64767 26186 ft 440 kts 307°
2026-04-24 04:40 34.51243 -119.67597 26535 ft 442 kts 307°
2026-04-24 04:40 34.53213 -119.70399 26888 ft 444 kts 307°
2026-04-24 04:41 34.55218 -119.73257 27220 ft 446 kts 307°
2026-04-24 04:41 34.57229 -119.76131 27548 ft 448 kts 307°
2026-04-24 04:41 34.59251 -119.79015 27898 ft 449 kts 307°
2026-04-24 04:41 34.61280 -119.81907 28241 ft 451 kts 307°
2026-04-24 04:42 34.63315 -119.84809 28513 ft 452 kts 307°
2026-04-24 04:42 34.65358 -119.87725 28790 ft 454 kts 307°
2026-04-24 04:42 34.67407 -119.90653 29067 ft 456 kts 307°
2026-04-24 04:42 34.69463 -119.93594 29336 ft 457 kts 307°
2026-04-24 04:43 34.71493 -119.96502 29599 ft 459 kts 307°
2026-04-24 04:43 34.73561 -119.99466 29834 ft 461 kts 307°
2026-04-24 04:43 34.75642 -120.02450 29970 ft 464 kts 307°
2026-04-24 04:43 34.77732 -120.05451 30008 ft 465 kts 307°
2026-04-24 04:44 34.81889 -120.11421 30030 ft 460 kts 307°
2026-04-24 04:44 34.86011 -120.17353 30034 ft 458 kts 307°
2026-04-24 04:45 34.90091 -120.23239 30055 ft 458 kts 307°
2026-04-24 04:45 34.94199 -120.29182 30054 ft 460 kts 307°
2026-04-24 04:46 34.98326 -120.35149 30064 ft 461 kts 307°
2026-04-24 04:46 35.02470 -120.41153 30063 ft 463 kts 307°
2026-04-24 04:47 35.06594 -120.47144 30041 ft 465 kts 307°
2026-04-24 04:47 35.10757 -120.53197 30039 ft 466 kts 307°
2026-04-24 04:48 35.14919 -120.59264 30030 ft 466 kts 307°
2026-04-24 04:48 35.19075 -120.65331 30046 ft 465 kts 307°
2026-04-24 04:49 35.23221 -120.71393 30052 ft 464 kts 306°
2026-04-24 04:49 35.27331 -120.77413 30044 ft 464 kts 306°
2026-04-24 04:50 35.31461 -120.83473 30046 ft 463 kts 306°
2026-04-24 04:50 35.35581 -120.89530 30067 ft 463 kts 306°
2026-04-24 04:51 35.39696 -120.95592 30064 ft 463 kts 306°
2026-04-24 04:51 35.43803 -121.01652 30068 ft 469 kts 306°
2026-04-24 04:52 35.47983 -121.07828 30065 ft 471 kts 306°
2026-04-24 04:52 35.52221 -121.13983 30071 ft 473 kts 307°
2026-04-24 04:53 35.56503 -121.20110 30064 ft 473 kts 307°
2026-04-24 04:53 35.60753 -121.26212 30063 ft 473 kts 307°
2026-04-24 04:54 35.65015 -121.32359 30067 ft 472 kts 307°
2026-04-24 04:54 35.69266 -121.38507 30072 ft 472 kts 307°
2026-04-24 04:55 35.73514 -121.44664 30072 ft 472 kts 307°
2026-04-24 04:55 35.77730 -121.50785 30069 ft 472 kts 307°
2026-04-24 04:56 35.81972 -121.56954 30078 ft 472 kts 307°
2026-04-24 04:56 35.86215 -121.63136 30082 ft 472 kts 307°
2026-04-24 04:57 35.90456 -121.69326 30088 ft 473 kts 307°
2026-04-24 04:57 35.94671 -121.75488 30090 ft 473 kts 307°
2026-04-24 04:58 35.99146 -121.81458 30074 ft 478 kts 316°
2026-04-24 04:58 36.04571 -121.86265 30100 ft 484 kts 327°
2026-04-24 04:59 36.10592 -121.90048 30096 ft 486 kts 329°
2026-04-24 04:59 36.16625 -121.93734 30096 ft 487 kts 329°
2026-04-24 05:00 36.22685 -121.97488 30109 ft 487 kts 329°
2026-04-24 05:00 36.28735 -122.01279 30122 ft 487 kts 329°
2026-04-24 05:01 36.34784 -122.05087 30130 ft 487 kts 329°
2026-04-24 05:01 36.40827 -122.08897 30117 ft 487 kts 329°
2026-04-24 05:02 36.46826 -122.12683 30131 ft 487 kts 329°
2026-04-24 05:02 36.52866 -122.16502 30129 ft 487 kts 329°
2026-04-24 05:03 36.58897 -122.20322 30122 ft 486 kts 329°
2026-04-24 05:03 36.64925 -122.24146 30123 ft 486 kts 329°
2026-04-24 05:04 36.70899 -122.27943 30121 ft 484 kts 329°
2026-04-24 05:04 36.76888 -122.31756 30114 ft 482 kts 329°
2026-04-24 05:05 36.82854 -122.35561 30100 ft 481 kts 329°
2026-04-24 05:05 36.88817 -122.39372 30099 ft 481 kts 329°
2026-04-24 05:06 36.94738 -122.43162 30101 ft 482 kts 329°
2026-04-24 05:06 37.00705 -122.46989 30100 ft 482 kts 329°
2026-04-24 05:07 37.06683 -122.50829 30093 ft 483 kts 329°
2026-04-24 05:07 37.12673 -122.54684 30102 ft 484 kts 329°
2026-04-24 05:08 37.18669 -122.58550 30118 ft 485 kts 329°
2026-04-24 05:08 37.24625 -122.62396 30090 ft 484 kts 329°
2026-04-24 05:09 37.30628 -122.66257 30108 ft 486 kts 330°
2026-04-24 05:09 37.36883 -122.69553 30123 ft 488 kts 335°
2026-04-24 05:10 37.43223 -122.72612 30103 ft 487 kts 335°
2026-04-24 05:10 37.49484 -122.75673 30105 ft 485 kts 335°
2026-04-24 05:11 37.55747 -122.78795 30110 ft 483 kts 335°
2026-04-24 05:11 37.61984 -122.81929 30090 ft 482 kts 335°
2026-04-24 05:12 37.68215 -122.85065 30100 ft 482 kts 335°
2026-04-24 05:12 37.74404 -122.88183 30094 ft 482 kts 334°
2026-04-24 05:13 37.83765 -122.92908 30086 ft 484 kts 334°
2026-04-24 05:14 37.90021 -122.96072 30096 ft 485 kts 334°
2026-04-24 05:14 37.96246 -122.99227 30094 ft 485 kts 334°
2026-04-24 05:15 38.02532 -123.02419 30101 ft 488 kts 334°
2026-04-24 05:15 38.08838 -123.05627 30098 ft 489 kts 334°
2026-04-24 05:16 38.15142 -123.08839 30077 ft 488 kts 334°
2026-04-24 05:16 38.21420 -123.12072 30080 ft 485 kts 332°
2026-04-24 05:17 38.27231 -123.16164 30078 ft 478 kts 324°
2026-04-24 05:17 38.32833 -123.20720 30065 ft 478 kts 324°
2026-04-24 05:18 38.38449 -123.25255 30079 ft 478 kts 324°
2026-04-24 05:18 38.44081 -123.29773 30067 ft 478 kts 324°
2026-04-24 05:19 38.49677 -123.34259 30064 ft 478 kts 324°
2026-04-24 05:19 38.55310 -123.38782 30084 ft 478 kts 323°
2026-04-24 05:20 38.60937 -123.43311 30067 ft 478 kts 323°
2026-04-24 05:20 38.66556 -123.47844 30082 ft 477 kts 323°
2026-04-24 05:21 38.72122 -123.52341 30090 ft 476 kts 323°
2026-04-24 05:21 38.77714 -123.56868 30081 ft 475 kts 323°
2026-04-24 05:22 38.83286 -123.61388 30091 ft 474 kts 323°
2026-04-24 05:22 38.88844 -123.65905 30083 ft 472 kts 323°
2026-04-24 05:23 38.94351 -123.70390 30083 ft 471 kts 323°
2026-04-24 05:23 38.99882 -123.74920 30101 ft 471 kts 322°
2026-04-24 05:24 39.05103 -123.79934 30110 ft 468 kts 318°
2026-04-24 05:24 39.10252 -123.85063 30095 ft 468 kts 318°
2026-04-24 05:25 39.15410 -123.90193 30113 ft 468 kts 318°
2026-04-24 05:25 39.20538 -123.95281 30110 ft 468 kts 319°
2026-04-24 05:26 39.25702 -124.00404 30115 ft 468 kts 318°
2026-04-24 05:26 39.30867 -124.05537 30118 ft 469 kts 318°
2026-04-24 05:27 39.36037 -124.10687 30105 ft 469 kts 318°
2026-04-24 05:27 39.41166 -124.15805 30105 ft 469 kts 318°
2026-04-24 05:28 39.46327 -124.20965 30098 ft 469 kts 318°
2026-04-24 05:28 39.51484 -124.26132 30101 ft 469 kts 318°
2026-04-24 05:29 39.56644 -124.31312 30121 ft 469 kts 318°
2026-04-24 05:29 39.61766 -124.36464 30108 ft 470 kts 318°
2026-04-24 05:30 39.66929 -124.41665 30100 ft 469 kts 318°
2026-04-24 05:30 39.72082 -124.46867 30124 ft 469 kts 318°
2026-04-24 05:31 39.77231 -124.52076 30115 ft 469 kts 318°
2026-04-24 05:31 39.82338 -124.57252 30117 ft 468 kts 318°
2026-04-24 05:32 39.87471 -124.62465 30129 ft 468 kts 318°
2026-04-24 05:32 39.92592 -124.67676 30129 ft 467 kts 318°
2026-04-24 05:33 39.97701 -124.72884 30124 ft 465 kts 318°
2026-04-24 05:33 40.02759 -124.78050 30131 ft 464 kts 318°
2026-04-24 05:34 40.10376 -124.85850 30138 ft 464 kts 318°
2026-04-24 05:34 40.15448 -124.91056 30152 ft 464 kts 318°
2026-04-24 05:35 40.20519 -124.96272 30146 ft 464 kts 318°
2026-04-24 05:35 40.25552 -125.01459 30149 ft 464 kts 318°
2026-04-24 05:36 40.30623 -125.06694 30150 ft 464 kts 317°
2026-04-24 05:36 40.35693 -125.11940 30149 ft 465 kts 317°
2026-04-24 05:37 40.40765 -125.17197 30154 ft 465 kts 317°
2026-04-24 05:37 40.45839 -125.22467 30157 ft 466 kts 317°
2026-04-24 05:38 40.50885 -125.27718 30161 ft 466 kts 317°
2026-04-24 05:38 40.55965 -125.33016 30171 ft 466 kts 317°
2026-04-24 05:39 40.61050 -125.38329 30154 ft 467 kts 317°
2026-04-24 05:39 40.66140 -125.43657 30163 ft 468 kts 317°
2026-04-24 05:40 40.71230 -125.48997 30193 ft 468 kts 318°
2026-04-24 05:40 40.76291 -125.54317 30173 ft 469 kts 318°
2026-04-24 05:41 40.81388 -125.59685 30169 ft 469 kts 318°
2026-04-24 05:41 40.86489 -125.65068 30169 ft 469 kts 317°
2026-04-24 05:42 40.91585 -125.70457 30173 ft 469 kts 317°
2026-04-24 05:42 40.96646 -125.75821 30170 ft 470 kts 317°
2026-04-24 05:43 41.01742 -125.81232 30182 ft 470 kts 318°
2026-04-24 05:43 41.06842 -125.86658 30177 ft 470 kts 318°
2026-04-24 05:44 41.11937 -125.92091 30181 ft 470 kts 317°
2026-04-24 05:44 41.17028 -125.97530 30185 ft 470 kts 317°
2026-04-24 05:45 41.22088 -126.02947 30177 ft 470 kts 317°
2026-04-24 05:45 41.27180 -126.08410 30181 ft 470 kts 317°
2026-04-24 05:46 41.32265 -126.13876 30195 ft 470 kts 317°
2026-04-24 05:46 41.37317 -126.19318 30186 ft 470 kts 317°
2026-04-24 05:47 41.42392 -126.24797 30194 ft 470 kts 317°
2026-04-24 05:47 41.47466 -126.30286 30195 ft 470 kts 317°
2026-04-24 05:48 41.52536 -126.35782 30195 ft 469 kts 317°
2026-04-24 05:48 41.57568 -126.41249 30195 ft 469 kts 317°
2026-04-24 05:49 41.62635 -126.46765 30201 ft 470 kts 318°
2026-04-24 05:49 41.67560 -126.52504 30199 ft 469 kts 312°
2026-04-24 05:50 41.72126 -126.58742 30206 ft 470 kts 312°
2026-04-24 05:50 41.76707 -126.64998 30207 ft 471 kts 313°
2026-04-24 05:51 41.81326 -126.71260 30216 ft 473 kts 313°
2026-04-24 05:51 41.85928 -126.77507 30220 ft 474 kts 312°
2026-04-24 05:52 41.90567 -126.83826 30220 ft 478 kts 315°
2026-04-24 05:52 41.95278 -126.90231 30224 ft 484 kts 315°
2026-04-24 05:53 42.00018 -126.96690 30222 ft 487 kts 315°
2026-04-24 05:53 42.04747 -127.03153 30223 ft 491 kts 316°
2026-04-24 05:54 42.09557 -127.09745 30233 ft 495 kts 317°
2026-04-24 05:54 42.14392 -127.16381 30234 ft 497 kts 317°
2026-04-24 05:55 42.19237 -127.23034 30222 ft 498 kts 317°
2026-04-24 05:55 42.24041 -127.29673 30235 ft 498 kts 317°
2026-04-24 05:56 42.28877 -127.36365 30236 ft 498 kts 317°
2026-04-24 05:56 42.33708 -127.43061 30239 ft 497 kts 317°
2026-04-24 05:57 42.38531 -127.49760 30238 ft 497 kts 317°
2026-04-24 05:57 42.43312 -127.56417 30239 ft 496 kts 317°
2026-04-24 05:58 42.48116 -127.63123 30250 ft 496 kts 317°
2026-04-24 05:58 42.52919 -127.69842 30256 ft 496 kts 317°
2026-04-24 05:59 42.57691 -127.76533 30255 ft 497 kts 317°
2026-04-24 05:59 42.62493 -127.83283 30245 ft 497 kts 316°
2026-04-24 06:00 42.67297 -127.90052 30254 ft 498 kts 316°
2026-04-24 06:00 42.72099 -127.96835 30257 ft 498 kts 316°
2026-04-24 06:01 42.76866 -128.03583 30262 ft 498 kts 316°
2026-04-24 06:01 42.81661 -128.10387 30260 ft 498 kts 316°
2026-04-24 06:02 42.86448 -128.17198 30266 ft 497 kts 316°
2026-04-24 06:02 42.91225 -128.24015 30260 ft 496 kts 316°
2026-04-24 06:03 42.95910 -128.30831 30256 ft 495 kts 316°
2026-04-24 06:03 43.00653 -128.37634 30320 ft 493 kts 316°
2026-04-24 06:04 43.05417 -128.44404 30279 ft 494 kts 316°
2026-04-24 06:04 43.10177 -128.51196 30272 ft 495 kts 316°
2026-04-24 06:05 43.14883 -128.57975 30285 ft 495 kts 316°
2026-04-24 06:05 43.19612 -128.64821 30286 ft 494 kts 316°
2026-04-24 06:06 43.24344 -128.71676 30290 ft 495 kts 316°
2026-04-24 06:06 43.29064 -128.78544 30284 ft 495 kts 316°
2026-04-24 06:07 43.33750 -128.85378 30282 ft 495 kts 316°
2026-04-24 06:07 43.38461 -128.92262 30293 ft 495 kts 316°
2026-04-24 06:08 43.43179 -128.99157 30292 ft 495 kts 316°
2026-04-24 06:08 43.47882 -129.06072 30290 ft 495 kts 316°
2026-04-24 06:09 43.51791 -129.11819 30306 ft 494 kts 316°
2026-04-24 06:09 43.57254 -129.19866 30304 ft 495 kts 316°
2026-04-24 06:10 43.61944 -129.26803 30306 ft 494 kts 315°